LEMUR-2-ALEXANDER (43559 NORAD) Tracking and Keplerian Element Data

This shows tracking and keplerian element data for the satellite.

Feedback or suggestion? Click here.




ElementValue
Catalog43559
NameLEMUR-2-ALEXANDER
Epoch Orbit4254
Epoch Day112.19039539
Epoch Year2019
RAAN331.7592
Inclination51.6426
Eccentricity0.000722
Argument of Perigee223.0508
Mean Anonmoly136.9908
Mean Motion15.29161536
Decay Rate1.279E-05
L11 43559U 18046F 19112.19039539 .00001279 00000-0 57034-4 0 9990
L22 43559 51.6426 331.7592 0007220 223.0508 136.9908 15.29161536 42543

Live tracking and technical data element details for LEMUR-2-ALEXANDER (NORAD 43559). LEMUR-2-ALEXANDER can be tracked NOW for your location showing map with azimuth and elevation plus other details from your city location.

Track the satellite on the map from your city or location and see movement details for azimuth, elevation, latitude, longitude, range, height, and movement on the map or in text.







IsCatalogInMostPopularTable: catalog: 43559, numindb: 121
Update: records affected: 1



GetName: 43559 LEMUR-2-ALEXANDER

Hit Count: updated at: Tue, 23 Apr 2019 20:04:06 GMT